Regional Weather Roundup
Issued by NWS Sioux Falls, SD

Home | Current Version | Previous Version | Text Only | Print | Product List | Glossary Off
Versions: 1 2 3 4 5 6 7 8 9 10 11 12 13 14 15 16 17 18 19 20 21 22 23 24 25 26 27 28 29 30 31 32 33 34 35 36 37 38 39 40 41 42 43 44 45 46 47 48 49 50

000
ASUS43 KFSD 202110
RWRFSD

WEATHER ROUNDUP FOR SE SOUTH DAKOTA/SW MINNESOTA/NW IOWA
NATIONAL WEATHER SERVICE SIOUX FALLS SD
300 PM CST FRI JAN 20 2017

NOTE: "FAIR" INDICATES FEW OR NO CLOUDS BELOW 12,000 FEET WITH NO
SIGNIFICANT WEATHER AND OR OBSTRUCTIONS TO VISIBILITY.


SDZ038>040-050-052>070-202200-
SOUTHEAST SOUTH DAKOTA

CITY           SKY/WX    TMP DP  RH WIND       PRES   REMARKS
BROOKINGS      FOG       37  36  96 S15       29.39R VSB 3/4
CHAMBERLAIN    SUNNY     44  32  61 S6        29.32S
HURON          SUNNY     43  36  76 S13       29.34R
MADISON        CLOUDY    37  37 100 S13         N/A
MITCHELL       SUNNY     48  37  65 S18G24    29.35F
SIOUX FALLS    CLOUDY    40  40 100 S13       29.42S FOG
WINNER         FAIR      47  30  51 SW13      29.32S
YANKTON        CLOUDY    45  39  81 SE14      29.39F
$$

MNZ071-072-080-081-089-090-097-098-202200-
SOUTHWEST MINNESOTA

CITY           SKY/WX    TMP DP  RH WIND       PRES   REMARKS
FAIRMONT       CLOUDY    36  36 100 SE6       29.51F FOG
JACKSON        CLOUDY    34  34 100 SE7       29.49R FOG     WCI  28
LUVERNE        CLOUDY    37  36  93 SE8       29.45R FOG
MARSHALL       CLOUDY    39  37  92 SE12      29.46R
MONTEVIDEO     CLOUDY    36  36 100 S8        29.48S FOG
PIPESTONE      DRZL/FOG  37  37 100 S12       29.42S VSB<1/4
REDWOOD FALLS  CLOUDY    36  34  92 SE10      29.50R FOG
TRACY          CLOUDY    40  39  97 S7        29.46S
WINDOM         CLOUDY    37  37 100 SE9       29.48S FOG
WORTHINGTON    FOG       37  37 100 S12       29.46S VSB 3/4
$$

IAZ001>003-012>014-020>022-031-032-NEZ013-014-SDZ071-202200-
NORTHWEST IOWA

CITY           SKY/WX    TMP DP  RH WIND       PRES   REMARKS
CHEROKEE       CLOUDY    39  39 100 SE9       29.48S FOG
DENISON        MIX PCPN  41  41 100 E9        29.45F
ESTHERVILLE    FOG       36  36 100 SE7       29.48F VSB 1/4
LE MARS        CLOUDY    43  41  93 SE10      29.46S FOG
ORANGE CITY    CLOUDY    39  39 100 SE6       29.45F FOG
SHELDON        FOG       39  39 100 SE12      29.45S VSB 1/4
SIOUX CITY     CLOUDY    43  41  93 SE7       29.46S FOG
SPENCER        CLOUDY    38  38 100 SE8       29.48S FOG
STORM LAKE     FOG       37  37 100 SE9       29.48S VSB<1/4
$$

ABBREVIATIONS USED IN REMARKS
   TC - TEMPERATURE IN CELSIUS
  WCI - WIND CHILL INDEX
   HX - HEAT INDEX
  VSB - VISIBILITY




USA.gov is the U.S. government's official web portal to all federal, state and local government web resources and services.